Probability
0 0 0 0 0 0 0 0 0 0 0 0 0 0 0 0 0 0 0 0 0 0 0 0 0 0 0 0 0 0 0 0 0 0 0 0 0 0 0 0 0 0 0 0 0 0 0 0 0
0 0 0 0 0 0 0 0 0 0 0 0 0 0 0 0 0 0 0 0 0 0 0 0 0 0 0 0 0 0 0 0 0 0 0 0 0 0 0 0 0 0 0 0 0 0 0 0 0
0 0 0 0 0 0 0 0 0 0 0 0 0 0 0 0 0 0 0 0 0 0 0 0 0 0 0 0 0 0 0 0 0 0 0 0 0 0 0 0 0 0 0 0 0 0 0 0 0
0 0 0 0 0 0 0 0 0 0 0 0 0 0 0 0 0 0 0 0 0 0 0 0 0 0 0 0 0 0 0 0 0 0 0 0 0 0 0 0 0 0 0 0 0 0 0 0 0
0 0 0 0 0 0 0 0 0 0 0 0 0 0 0 0 0 0 0 0 0 0 0 0 0 0 0 0 0 0 0 0 0 0 0 0 0 0 0 0 0 0 0 0 0 0 0 0 0
0 0 0 0 0 0 0 0 0 0 0 0 0 0 0 0 0 0 0 0 0 0 0 0 0 0 0 0 0 0 0 0 0 0 0 0 0 0 0 0 0 0 0 0 0 0 0 0 0
0 0 0 0 0 0 0 0 0 0 0 0 0 0 0 0 0 0 0 0 0 0 0 0 0 0 0 0 0 0 0 0 0 0 0 0 0 0 0 0 0 0 0 0 0 0 0 0 0
0 0 0 0 0 0 0 0 0 0 0 0 0 0 0 0 0 0 0 0 0 0 0 0 0 0 0 0 0 0 0 0 0 0 0 0 0 0 0 0 0 0 0 0 0 0 0 0 0
0 0 0 0 0 0 0 0 0 0 0 0 0 0 0 0 0 0 0 0 0 0 0 0 0 0 0 0 0 0 0 0 0 0 0 0 0 0 0 0 0 0 0 0 0 0 0 0 0
0 0 0 0 0 0 0 0 0 0 0 0 0 0 0 0 0 0 0 0 0 0 0 0 0 0 0 0 0 0 0 0 0 0 0 0 0 0 0 0 0 0 0 0 0 0 0 0 0
0 0 0 0 0 0 0 0 0 0 0 0 0 0 0 0 0 0 0 0 0 0 0 0 0 0 0 0 0 0 0 0 0 0 0 0 0 0 0 0 0 0 0 0 0 0 0 0 0
0 0 0 0 0 0 0 0 0 0 0 0 0 0 0 0 0 0 0 0 0 0 0 0 0 0 0 0 0 0 0 0 0 0 0 0 0 0 0 0 0 0 0 0 0 0 0 0 0
0 0 0 0 0 0 0 0 0 0 0 0 0 0 0 0 0 0 0 0 0 0 0 0 0 0 0 0 0 0 0 0 0 0 0 0 0 0 0 0 0 0 0 0 0 0 0 0 0
0 0 0 0 0 0 0 0 0 0 0 0 0 0 0 0 0 0 0 0 0 0 0 0 0 0 0 0 0 0 0 0 0 0 0 0 0 0 0 0 0 0 0 0 0 0 0 0 0
0 0 0 0 0 0 0 0 0 0 0 0 0 0 0 0 0 0 0 0 0 0 0 0 0 0 0 0 0 0 0 0 0 0 0 0 0 0 0 0 0 0 0 0 0 0 0 0 0
0 0 0 0 0 0 0 0 0 0 0 0 0 0 0 0 0 0 0 0 0 0 0 0 0 0 0 0 0 0 0 0 0 0 0 0 0 0 0 0 0 0 0 0 0 0 0 0 0
0 0 0 0 0 0 0 0 0 0 0 0 0 0 0 0 0 0 0 0 0 0 0 0 0 0 0 0 0 0 0 0 0 0 0 0 0 0 0 0 0 0 0 0 0 0 0 0 0
0 0 0 0 0 0 0 0 0 0 0 0 0 0 0 0 0 0 0 0 0 0 0 0 0 0 0 0 0 0 0 0 0 0 0 0 0 0 0 0 0 0 0 0 0 0 0 0 0
0 0 0 0 0 0 0 0 0 0 0 0 0 0 0 0 0 0 0 0 0 0 0 0 0 0 0 0 0 0 0 0 0 0 0 0 0 0 0 0 0 0 0 0 0 0 0 0 0
0 0 0 0 0 0 0 0 0 0 0 0 0 0 0 0 0 0 0 0 0 0 0 0 0 0 0 0 0 0 0 0 0 0 0 0 0 0 0 0 0 0 0 0 0 0 0 0 0
0 0 0 0 0 0 0 0 0 0 0 0 0 0 0 0 0 0 0 0 0 0 0 0 0 0 0 0 0 0 0 0 0 0 0 0 0 0 0 0 0 0 0 0 0 0 0 0 0
0 0 0 0 0 0 0 0 0 0 0 0 0 0 0 0 0 0 0 0 0 0 0 0 0 0 0 0 0 0 0 0 0 0 0 0 0 0 0 0 0 0 0 0 0 0 0 0 0
0 0 0 0 0 0 0 0 0 0 0 0 0 0 0 0 0 0 0 0 0 0 0 0 0 0 0 0 0 0 0 0 0 0 0 0 0 0 0 0 0 0 0 0 0 0 0 0 0
0 0 0 0 0 0 0 0 0 0 0 0 0 0 0 0 0 0 0 0 0 0 0 0 0 0 0 0 0 0 0 0 0 0 0 0 0 0 0 0 0 0 0 0 0 0 0 0 0
0 0 0 0 0 0 0 0 0 0 0 0 0 0 0 0 0 0 0 0 0 0 0 0 0 0 0 0 0 0 0 0 0 0 0 0 0 0 0 0 0 0 0 0 0 0 0 0 0
0 0 0 0 0 0 0 0 0 0 0 0 0 0 0 0 0 0 0 0 0 0 0 0 0 0 0 0 0 0 0 0 0 0 0 0 0 0 0 0 0 0 0 0 0 0 0 0 0
0 0 0 0 0 0 0 0 0 0 0 0 0 0 0 0 0 0 0 0 0 0 0 0 0 0 0 0 0 0 0 0 0 0 0 0 0 0 0 0 0 0 0 0 0 0 0 0 0
0 0 0 0 0 0 0 0 0 0 0 0 0 0 0 0 0 0 0 0 0 0 0 0 0 0 0 0 0 0 0 0 0 0 0 0 0 0 0 0 0 0 0 0 0 0 0 0 0
0 0 0 0 0 0 0 0 0 0 0 0 0 0 0 0 0 0 0 0 0 0 0 0 0 0 0 0 0 0 0 0 0 0 0 0 0 0 0 0 0 0 0 0 0 0 0 0 0
0 0 0 0 0 0 0 0 0 0 0 0 0 0 0 0 0 0 0 0 0 0 0 0 0 0 0 0 0 0 0 0 0 0 0 0 0 0 0 0 0 0 0 0 0 0 0 0 0
Wind_Speed
4 1 2 3 2 0 3 4 4 6 6 2 2 3 2 1 1 5 7 8 9 10 10 10 8 10 11 12 12 13 13 14 15 15 15 16 16 16 16 16 16 16 17 19 20 20 20 20 20
3 1 3 2 3 2 3 5 6 5 5 6 4 3 3 3 3 6 8 7 10 11 10 10 10 10 11 12 12 12 13 14 14 15 16 16 16 16 16 16 16 17 18 20 20 20 20 20 20
1 2 1 1 2 2 3 6 7 6 7 4 4 1 1 5 6 7 5 8 10 10 10 10 10 11 12 12 12 13 13 14 14 15 15 16 17 17 17 17 17 18 19 20 20 20 20 20 20
2 2 0 2 1 1 0 5 8 10 6 3 4 4 3 3 3 3 4 9 11 10 10 11 9 11 12 12 12 13 13 14 14 15 15 16 17 17 17 17 18 18 19 20 20 20 20 20 20
1 2 2 1 1 1 1 3 9 10 7 5 5 4 6 4 2 3 6 10 11 10 9 11 9 10 10 11 12 13 13 13 14 14 15 16 17 17 17 18 18 19 19 20 20 20 20 20 20
2 2 3 3 2 1 3 7 9 7 4 4 5 5 6 4 5 6 8 10 10 10 9 9 8 8 9 9 10 11 12 13 14 14 15 16 16 17 17 18 18 19 19 20 20 20 21 21 21
3 3 3 3 3 3 5 8 7 6 6 5 5 7 6 8 7 6 8 8 9 9 9 9 10 9 8 8 9 10 11 11 12 13 14 13 14 16 16 16 18 19 19 20 20 20 20 21 21
1 3 4 4 5 5 7 8 3 6 3 3 5 5 5 11 10 7 7 8 8 8 8 8 8 9 9 9 9 9 10 11 11 12 12 12 13 14 13 14 17 19 19 20 20 20 21 21 20
3 5 6 6 7 5 9 9 5 1 3 4 4 2 4 10 12 10 8 8 8 8 8 8 8 7 7 8 9 9 10 11 12 12 13 11 11 11 10 14 15 18 19 19 20 20 20 19 18
4 7 7 3 4 3 9 8 9 7 7 7 6 6 5 11 14 15 15 15 14 12 10 7 7 7 7 5 7 8 8 10 10 10 12 8 8 8 10 13 14 15 17 19 18 17 14 11 9
3 4 3 3 4 2 7 6 6 7 9 11 9 11 12 14 15 17 17 17 15 14 11 8 7 6 6 5 5 5 5 6 8 10 10 8 8 8 8 7 9 10 11 11 12 9 7 8 7
2 2 2 3 4 3 5 6 7 11 7 1 1 6 13 17 18 19 18 17 15 14 13 10 8 7 7 6 5 5 5 5 6 8 10 8 6 7 7 5 7 6 5 7 7 7 9 10 10
3 4 3 3 3 2 3 5 5 10 9 2 2 7 13 16 18 16 15 14 14 14 13 11 9 9 7 6 5 6 6 7 7 8 9 10 7 8 7 6 6 6 6 7 8 9 10 10 10
3 4 3 2 3 3 4 4 5 9 5 7 7 9 12 15 16 15 16 16 16 15 14 11 11 9 9 8 7 7 7 7 7 7 10 11 8 8 8 7 7 7 7 7 8 10 9 8 8
2 3 2 2 2 1 3 8 12 7 5 8 11 11 11 13 14 18 18 18 17 15 13 12 11 10 10 10 10 7 7 7 7 7 9 10 9 10 9 8 7 7 8 10 9 10 9 9 9
3 3 5 3 2 2 5 12 6 3 7 11 12 11 11 13 15 16 16 16 15 14 14 12 9 11 11 10 9 7 7 7 6 6 7 10 10 11 9 8 8 9 9 9 9 9 9 9 8
4 5 6 3 4 3 8 11 3 3 5 10 11 12 12 13 15 17 17 17 16 15 14 14 13 12 11 10 8 7 6 7 6 6 6 8 10 11 10 9 9 11 9 9 9 9 9 10 9
7 6 5 5 3 5 9 14 12 7 7 11 12 12 12 14 18 16 17 17 16 15 14 14 14 13 11 9 7 5 6 5 5 5 6 9 9 11 10 8 11 11 10 9 9 11 10 9 10
4 5 6 4 1 5 11 17 17 15 13 16 17 16 16 17 16 13 14 15 15 16 16 16 16 15 12 9 9 7 7 6 5 4 6 9 10 11 11 10 11 11 11 12 14 13 14 10 10
5 6 8 4 1 5 10 18 18 18 19 18 19 19 19 18 16 13 13 14 17 18 18 18 18 17 16 12 9 6 6 5 4 4 5 7 9 11 10 13 12 11 11 13 15 15 10 9 9
9 12 11 6 1 4 7 15 14 11 11 14 17 20 21 20 20 17 14 15 16 18 19 17 18 18 17 14 9 5 4 3 4 6 6 7 9 10 10 13 12 12 13 14 16 17 13 12 9
11 9 9 6 6 5 4 11 10 7 10 12 16 17 20 20 19 17 14 14 16 17 15 17 17 18 17 16 14 15 12 12 12 8 7 8 8 9 10 11 12 13 12 14 16 16 12 14 11
5 4 4 3 5 7 7 10 14 5 13 16 17 20 20 18 16 15 13 13 13 14 14 15 16 18 18 18 18 17 15 12 9 9 10 9 8 9 9 10 11 12 11 13 16 15 13 12 11
9 8 6 3 2 11 10 12 16 10 13 13 13 15 16 14 12 11 9 8 10 11 12 14 16 18 18 19 18 19 18 15 13 13 12 9 7 7 10 10 10 11 10 13 15 14 15 11 11
8 7 4 5 6 12 6 11 17 9 12 12 11 12 10 7 7 7 7 7 9 11 13 14 16 17 18 19 19 18 18 17 17 15 14 12 9 8 12 11 11 11 10 11 12 13 13 12 12
14 14 12 10 9 8 5 15 13 4 7 11 14 16 15 11 8 8 8 7 8 10 12 14 16 16 17 18 18 17 17 13 11 14 12 13 11 11 13 13 12 12 12 12 12 10 11 10 10
12 13 9 5 2 7 13 14 13 7 11 14 17 16 16 13 10 9 9 8 8 10 12 14 15 15 16 17 17 17 17 15 14 13 12 11 10 9 14 13 13 13 13 13 13 10 11 10 9
5 8 6 9 8 12 16 19 15 5 12 15 15 15 15 10 8 8 7 7 7 8 10 12 14 15 15 16 16 13 16 16 14 13 14 12 11 10 13 13 13 13 13 13 12 11 11 11 9
10 10 10 8 8 10 11 15 7 9 10 9 9 9 9 8 7 6 5 4 5 6 9 11 13 14 14 16 16 16 16 15 15 14 15 13 12 13 14 14 14 14 14 14 13 12 14 13 11
13 16 17 12 9 7 8 17 4 8 5 6 8 7 6 6 5 4 4 3 5 7 9 11 12 14 14 14 15 16 16 16 16 16 15 14 14 14 14 14 14 15 15 15 15 15 15 14 14
Wind_Direction
337 352 230 227 217 166 132 134 148 148 158 131 152 186 194 143 28 86 108 141 147 151 153 155 154 142 133 125 118 110 103 96 91 88 85 83 82 81 81 82 83 84 86 86 84 82 79 77 74
353 279 225 241 259 237 159 165 175 152 123 125 130 148 162 127 80 110 136 144 153 150 153 151 142 139 134 129 123 116 109 101 95 90 87 85 84 83 84 84 85 87 88 87 85 83 81 79 76
98 296 261 218 259 287 154 172 165 121 133 160 151 174 196 129 136 134 126 152 156 151 152 142 144 139 137 135 130 124 117 109 101 95 90 88 87 86 87 87 87 88 88 87 86 84 82 81 79
231 192 167 251 240 9 48 157 154 145 159 179 179 157 149 98 127 111 139 162 157 152 152 145 147 144 142 141 137 131 125 117 108 101 96 93 91 90 90 90 89 89 88 86 86 85 84 82 80
238 220 207 203 160 85 219 159 166 163 169 170 195 173 152 137 143 149 162 165 160 154 153 150 147 146 146 146 143 140 133 125 117 110 103 99 96 95 94 93 92 91 90 89 88 87 86 84 82
173 202 231 218 167 143 164 163 171 182 172 169 195 172 144 139 163 154 163 168 164 157 155 151 142 145 149 149 146 143 139 133 126 119 111 106 102 100 98 98 96 95 94 93 91 90 88 86 83
201 200 232 207 176 183 164 165 188 193 198 185 191 173 150 171 163 154 163 167 166 161 160 160 161 160 154 152 149 146 144 139 133 125 116 107 104 102 100 101 102 100 98 96 94 93 91 88 85
170 162 170 194 200 196 159 168 206 203 192 122 196 200 159 169 156 152 157 167 167 167 169 169 168 171 171 168 159 154 151 146 137 127 118 110 107 104 103 105 106 105 103 100 98 95 92 88 84
214 208 211 203 204 194 164 181 162 223 161 176 211 267 68 144 155 160 165 176 176 176 175 176 174 176 178 176 165 166 159 151 143 135 131 136 129 121 114 105 108 109 107 104 101 98 95 91 82
204 222 221 197 201 182 177 197 174 184 199 205 206 193 154 165 173 181 186 188 189 187 182 180 182 179 183 179 180 180 174 167 167 158 156 151 136 121 115 102 103 106 108 106 103 101 100 95 90
206 227 178 173 190 190 178 192 181 207 219 218 210 185 171 179 187 194 197 197 196 191 184 186 185 186 188 186 189 185 181 176 175 168 164 154 140 134 131 125 118 118 119 112 111 104 91 86 82
138 118 142 149 167 180 188 179 195 223 230 81 210 166 174 187 195 200 201 200 198 196 193 188 189 194 195 196 197 192 188 183 179 176 171 163 155 154 149 145 141 136 125 122 112 101 95 91 87
150 139 123 110 148 176 173 202 229 236 229 205 201 192 196 197 202 206 207 205 202 203 199 195 194 198 195 197 200 200 198 193 187 181 180 175 166 161 155 147 144 138 132 127 119 112 106 100 93
126 133 131 143 155 170 205 225 241 247 209 216 222 219 213 211 206 203 207 209 207 207 203 198 200 201 200 203 205 205 203 198 193 186 186 182 173 164 158 150 146 140 135 127 123 120 113 104 99
122 140 174 190 194 181 222 248 233 233 191 229 231 231 226 223 214 213 210 211 210 208 206 202 203 203 206 210 210 209 205 200 197 191 188 185 177 169 161 154 149 142 135 130 124 119 114 111 108
131 184 218 188 199 187 221 257 244 178 222 243 240 237 234 229 224 224 219 216 213 209 206 204 200 204 207 210 209 207 206 202 199 190 186 183 177 170 161 154 151 146 142 140 136 133 127 122 118
195 215 225 201 185 188 223 258 264 158 235 253 251 246 243 242 234 226 220 216 212 210 207 204 202 204 204 203 204 204 201 200 195 187 184 181 175 170 163 157 151 151 147 146 142 139 137 131 123
194 208 220 229 168 206 231 252 263 235 245 263 265 258 250 247 243 230 217 213 211 209 208 206 203 203 196 191 190 191 194 196 193 191 188 179 173 169 160 153 155 154 150 149 148 141 137 132 128
175 193 220 228 124 232 251 261 265 267 254 258 260 258 254 251 251 235 215 206 205 206 206 205 203 198 191 187 188 191 197 191 191 193 189 183 173 169 163 155 160 162 160 157 153 144 140 139 137
182 215 242 252 167 248 275 274 270 262 256 253 255 255 254 254 250 232 214 205 205 205 205 205 205 199 196 195 192 194 183 185 185 176 187 186 177 173 169 164 166 167 158 155 156 152 146 155 169
217 230 240 239 181 231 287 278 255 249 251 256 254 255 258 255 254 245 219 211 209 210 207 205 204 200 198 192 181 153 143 149 176 192 191 189 183 178 176 173 167 170 166 165 167 167 162 168 180
228 227 235 229 254 258 233 280 271 243 254 252 253 249 250 250 249 249 236 218 214 214 208 207 204 202 198 191 191 189 193 198 199 189 181 179 185 183 180 176 173 174 175 172 174 178 176 171 174
195 111 170 208 236 266 221 253 270 239 257 254 251 251 252 252 251 249 241 230 221 211 206 205 204 203 200 197 199 202 206 207 191 178 176 178 182 186 182 179 177 179 179 176 176 179 181 181 181
130 107 89 95 213 259 229 229 266 234 248 258 247 248 255 259 259 256 250 230 219 204 201 201 204 205 203 202 202 205 206 200 187 184 181 180 179 184 185 182 184 183 181 180 181 180 183 184 186
173 160 192 214 219 249 158 232 259 230 234 252 266 270 268 267 266 258 242 222 210 200 198 199 203 207 205 206 208 209 210 204 201 193 188 181 180 186 187 183 185 184 183 182 180 180 183 185 182
194 199 206 226 232 254 188 240 261 226 267 273 267 265 268 265 258 255 249 234 216 204 199 199 204 208 206 208 211 210 211 206 206 201 192 190 191 188 182 184 184 182 179 177 178 177 176 178 177
179 218 233 242 262 273 256 256 273 236 257 255 255 258 261 261 254 251 246 234 221 207 202 201 204 208 208 209 211 211 210 208 205 199 198 196 194 182 179 182 179 178 176 174 173 173 170 166 166
202 165 156 202 223 244 254 258 259 226 237 243 250 257 266 268 258 248 240 230 219 210 204 203 206 209 209 209 211 211 210 209 205 198 198 196 190 179 178 179 177 175 174 172 171 164 163 159 156
172 188 202 205 219 228 250 257 240 230 233 246 259 269 278 280 266 252 242 225 214 208 205 205 207 210 211 210 210 211 211 208 205 202 200 195 188 182 183 181 176 175 173 172 171 165 162 160 155
213 209 199 204 216 227 251 265 211 217 242 255 275 285 289 289 280 270 263 240 223 217 212 212 211 212 211 208 210 212 211 208 207 205 201 194 190 186 184 182 179 177 175 173 172 166 166 164 162